TimeEDT,TemperatureF,Dew PointF,Humidity,Sea Level PressureIn,VisibilityMPH,Wind Direction,Wind SpeedMPH,Gust SpeedMPH,PrecipitationIn,Events,Conditions,WindDirDegrees,DateUTC
12:12 AM,60.8,48.2,63,30.21,10.0,Calm,Calm,-,N/A,,Clear,0,2013-05-27 04:12:00
12:32 AM,59.0,48.2,67,30.22,10.0,Calm,Calm,-,N/A,,Clear,0,2013-05-27 04:32:00
12:52 AM,59.0,46.4,63,30.22,10.0,Calm,Calm,-,N/A,,Clear,0,2013-05-27 04:52:00
1:12 AM,59.0,44.6,59,30.21,10.0,Calm,Calm,-,N/A,,Clear,0,2013-05-27 05:12:00
1:32 AM,59.0,44.6,59,30.22,10.0,West,3.5,-,N/A,,Clear,270,2013-05-27 05:32:00
1:52 AM,60.8,42.8,52,30.23,10.0,WNW,5.8,-,N/A,,Clear,290,2013-05-27 05:52:00
2:12 AM,60.8,41.0,48,30.23,10.0,WNW,8.1,-,N/A,,Clear,300,2013-05-27 06:12:00
2:32 AM,59.0,42.8,55,30.23,10.0,NW,6.9,-,N/A,,Clear,320,2013-05-27 06:32:00
2:52 AM,59.0,44.6,59,30.23,10.0,NNW,6.9,-,N/A,,Clear,340,2013-05-27 06:52:00
3:12 AM,59.0,44.6,59,30.23,10.0,North,5.8,-,N/A,,Clear,360,2013-05-27 07:12:00
3:32 AM,59.0,44.6,59,30.23,10.0,North,6.9,-,N/A,,Clear,10,2013-05-27 07:32:00
3:52 AM,55.4,42.8,63,30.23,10.0,NE,6.9,-,N/A,,Clear,40,2013-05-27 07:52:00
4:12 AM,57.2,42.8,59,30.23,10.0,ENE,6.9,-,N/A,,Clear,70,2013-05-27 08:12:00
4:32 AM,55.4,41.0,58,30.24,10.0,ENE,8.1,-,N/A,,Clear,60,2013-05-27 08:32:00
4:52 AM,55.4,41.0,58,30.24,10.0,ENE,5.8,-,N/A,,Clear,60,2013-05-27 08:52:00
5:12 AM,55.4,41.0,58,30.25,10.0,East,6.9,-,N/A,,Clear,80,2013-05-27 09:12:00
5:33 AM,55.4,41.0,58,30.25,10.0,ENE,6.9,-,N/A,,Clear,60,2013-05-27 09:33:00
5:53 AM,55.4,39.2,54,30.25,10.0,ENE,4.6,-,N/A,,Clear,70,2013-05-27 09:53:00
6:13 AM,55.4,41.0,58,30.26,10.0,NE,3.5,-,N/A,,Clear,50,2013-05-27 10:13:00
6:33 AM,55.4,41.0,58,30.26,10.0,Calm,Calm,-,N/A,,Clear,0,2013-05-27 10:33:00
6:53 AM,57.2,41.0,55,30.26,10.0,Calm,Calm,-,N/A,,Clear,0,2013-05-27 10:53:00
7:13 AM,59.0,41.0,51,30.27,10.0,Calm,Calm,-,N/A,,Clear,0,2013-05-27 11:13:00
7:33 AM,59.0,41.0,51,30.27,10.0,Calm,Calm,-,N/A,,Clear,0,2013-05-27 11:33:00
7:53 AM,59.0,39.2,48,30.27,10.0,ENE,3.5,-,N/A,,Clear,70,2013-05-27 11:53:00
8:13 AM,60.8,37.4,42,30.28,10.0,Calm,Calm,-,N/A,,Clear,0,2013-05-27 12:13:00
8:33 AM,62.6,37.4,39,30.28,10.0,NE,3.5,-,N/A,,Clear,50,2013-05-27 12:33:00
8:53 AM,62.6,37.4,39,30.29,10.0,ESE,3.5,-,N/A,,Clear,110,2013-05-27 12:53:00
9:13 AM,64.4,33.8,32,30.28,10.0,East,5.8,-,N/A,,Clear,90,2013-05-27 13:13:00
9:33 AM,64.4,35.6,34,30.28,10.0,East,3.5,-,N/A,,Clear,100,2013-05-27 13:33:00
9:53 AM,64.4,33.8,32,30.28,10.0,ESE,3.5,-,N/A,,Clear,110,2013-05-27 13:53:00
10:13 AM,66.2,33.8,30,30.28,10.0,SE,4.6,-,N/A,,Clear,130,2013-05-27 14:13:00
10:33 AM,68.0,35.6,30,30.28,10.0,Calm,Calm,-,N/A,,Clear,0,2013-05-27 14:33:00
10:53 AM,68.0,35.6,30,30.28,10.0,Calm,Calm,-,N/A,,Clear,0,2013-05-27 14:53:00
11:13 AM,68.0,41.0,37,30.28,10.0,WNW,6.9,-,N/A,,Clear,300,2013-05-27 15:13:00
11:33 AM,66.2,42.8,43,30.27,10.0,NW,4.6,-,N/A,,Clear,310,2013-05-27 15:33:00
11:53 AM,66.2,41.0,40,30.28,10.0,NW,5.8,-,N/A,,Clear,310,2013-05-27 15:53:00
12:13 PM,68.0,41.0,37,30.27,10.0,WNW,4.6,-,N/A,,Clear,300,2013-05-27 16:13:00
12:33 PM,66.2,39.2,37,30.26,10.0,WNW,4.6,-,N/A,,Clear,300,2013-05-27 16:33:00
12:53 PM,68.0,41.0,37,30.26,10.0,WNW,4.6,-,N/A,,Clear,300,2013-05-27 16:53:00
1:13 PM,68.0,41.0,37,30.26,10.0,WNW,4.6,-,N/A,,Clear,290,2013-05-27 17:13:00
1:33 PM,68.0,42.8,40,30.26,10.0,Calm,Calm,-,N/A,,Clear,0,2013-05-27 17:33:00
1:53 PM,68.0,41.0,37,30.25,10.0,West,3.5,-,N/A,,Clear,280,2013-05-27 17:53:00
2:14 PM,69.8,39.2,33,30.24,10.0,Calm,Calm,-,N/A,,Clear,0,2013-05-27 18:14:00
2:34 PM,69.8,35.6,28,30.24,10.0,Calm,Calm,-,N/A,,Clear,0,2013-05-27 18:34:00
2:54 PM,69.8,37.4,31,30.23,10.0,Calm,Calm,-,N/A,,Clear,0,2013-05-27 18:54:00
3:14 PM,69.8,37.4,31,30.22,10.0,South,3.5,-,N/A,,Clear,170,2013-05-27 19:14:00
3:34 PM,69.8,37.4,31,30.22,10.0,SSE,3.5,-,N/A,,Clear,150,2013-05-27 19:34:00
3:54 PM,69.8,39.2,33,30.22,10.0,South,3.5,-,N/A,,Clear,180,2013-05-27 19:54:00
4:14 PM,69.8,41.0,35,30.21,10.0,South,3.5,-,N/A,,Clear,170,2013-05-27 20:14:00
4:34 PM,69.8,41.0,35,30.20,10.0,SSE,3.5,-,N/A,,Clear,160,2013-05-27 20:34:00
4:54 PM,69.8,41.0,35,30.20,10.0,SSE,4.6,-,N/A,,Clear,150,2013-05-27 20:54:00
5:14 PM,69.8,37.4,31,30.20,10.0,Calm,Calm,-,N/A,,Clear,0,2013-05-27 21:14:00
5:34 PM,69.8,41.0,35,30.19,10.0,Calm,Calm,-,N/A,,Clear,0,2013-05-27 21:34:00
5:54 PM,69.8,42.8,38,30.20,10.0,Calm,Calm,-,N/A,,Clear,0,2013-05-27 21:54:00
6:14 PM,68.0,44.6,43,30.19,10.0,Calm,Calm,-,N/A,,Clear,0,2013-05-27 22:14:00
6:34 PM,68.0,42.8,40,30.19,10.0,Calm,Calm,-,N/A,,Clear,0,2013-05-27 22:34:00
6:54 PM,68.0,42.8,40,30.19,10.0,Calm,Calm,-,N/A,,Clear,0,2013-05-27 22:54:00
7:14 PM,68.0,48.2,49,30.19,10.0,Calm,Calm,-,N/A,,Clear,0,2013-05-27 23:14:00
7:34 PM,68.0,46.4,46,30.19,10.0,South,4.6,-,N/A,,Clear,190,2013-05-27 23:34:00
7:54 PM,66.2,50.0,56,30.19,10.0,Calm,Calm,-,N/A,,Clear,0,2013-05-27 23:54:00
8:14 PM,66.2,48.2,52,30.20,10.0,South,3.5,-,N/A,,Clear,190,2013-05-28 00:14:00
8:34 PM,66.2,48.2,52,30.20,10.0,Calm,Calm,-,N/A,,Clear,0,2013-05-28 00:34:00
8:54 PM,64.4,46.4,52,30.19,10.0,South,3.5,-,N/A,,Clear,180,2013-05-28 00:54:00
9:14 PM,64.4,48.2,56,30.20,10.0,Calm,Calm,-,N/A,,Clear,0,2013-05-28 01:14:00
9:34 PM,64.4,46.4,52,30.19,10.0,South,3.5,-,N/A,,Clear,190,2013-05-28 01:34:00
9:54 PM,64.4,46.4,52,30.20,10.0,South,3.5,-,N/A,,Clear,190,2013-05-28 01:54:00
10:14 PM,64.4,46.4,52,30.21,10.0,Calm,Calm,-,N/A,,Clear,0,2013-05-28 02:14:00
10:34 PM,64.4,46.4,52,30.21,10.0,Calm,Calm,-,N/A,,Clear,0,2013-05-28 02:34:00
10:54 PM,62.6,46.4,55,30.22,10.0,Calm,Calm,-,N/A,,Clear,0,2013-05-28 02:54:00
11:15 PM,62.6,51.8,68,30.22,10.0,Calm,Calm,-,N/A,,Clear,0,2013-05-28 03:15:00
11:35 PM,62.6,53.6,72,30.21,10.0,Calm,Calm,-,N/A,,Clear,0,2013-05-28 03:35:00
11:55 PM,62.6,51.8,68,30.21,10.0,Calm,Calm,-,N/A,,Clear,0,2013-05-28 03:55:00